CZ-4 DEB

Satellite information

Favourite Embed

Satellite Type and Status

DEBRISIN ORBIT

Key statistics

Satellite CZ-4 DEB at a glance.

Uptime

12726

Days in orbit

Revolutions

≈ 14.2

Per day

Orbit

SSO

Sun Synchronous Orbit

Inclination

98.7

Latest

Satellite identification and parameters

Extended collection of information and parameters for CZ-4 DEB.

Object identification

Identified? True

Debris? True

Object name: CZ-4 DEB

International designator: 1990-081CP

Object number (NORAD): 23258

Object ID (CCSDS): 23258

Country: PEOPLES REPUBLIC OF CHINA (PRC)

Current information (Y/N): Y

RCS size: SMALL

Orbital parameters

Period: 101.422 minutes

Inclination: 98.6716 deg

SMA: 7204.121 km

Apoapsis: 841.272 km

Periapsis: 810.701 km

RAAN: 176.5889 deg

Eccentricy: 0.0021218

Argument of periapsis: 328.3631 deg

Mean anomaly: 31.6269 deg

Mean motion: 14.19813268 rev/day

Mean motion (dot): 0.00000415 rev/day2

B* drag term: 0.00021585 1/REarth

Two-line elements (TLE)

Creation date: July 6, 2025, 6:05 p.m.

Reference frame: TEME

Reference center: EARTH

Epoch: July 6, 2025, 9:24 a.m. UTC

TLE line 0: 0 CZ-4 DEB

TLE line 1: 1 23258U 90081CP 25187.39223574 .00000415 00000-0 21585-3 0 9990

TLE line 2: 2 23258 98.6716 176.5889 0021218 328.3631 31.6269 14.19813268710551

Live tracking on map

Real-time ground track for satellite CZ-4 DEB.

In-orbit conjunctions

A list of the most updated potential collisions computed for object CZ-4 DEB.

Target Orbit TCA Probability of collision Miss distance Type
SL-16 DEB LEO 2025-06-12 16:34:36 0.0001712781 387.0 (m) DEBRIS
CZ-6A DEB LEO 2025-01-27 12:39:33 0.0001046009 79.0 (m) DEBRIS
FENGYUN 1C DEB SSO 2024-09-26 08:35:35 0.0001092049 455.0 (m) DEBRIS

Associated space launch

Chinese polar orbiting meteorological satellite

CZ-4 DEB was lifted into orbit during the mission ‘Long March 4A | Feng Yun 1B’, on board a Long March 4A space rocket.

The launch took place on Sept. 3, 1990, 12:53 a.m. from Launch Complex 7.

For more information about the launch, click the button.

Launch to space Long March 4A | Feng Yun 1B
Long March 4A | Feng Yun 1B

Agency: N/A

Status: Launch Successful

Launch date: Sept. 3, 1990, 12:53 a.m. UTC

Rocket: Long March 4A

Launch pad: Launch Complex 7

Location: Taiyuan Satellite Launch Center, People's Republic of China

...

Latest news about this satellite

There are no fresh news available about this satellite. Check back as we update our databases every day.


Newsletter sign-up

Weekly statistics, charts and insights to help you stay on top of the space industry.